Location: Winthrop
(48.4780°N, 120.1850°W)
Time: 04:59:25
(UTC-07:00)

UWE-3 - Visible Passes

Search period start: 22 May 2022 00:00
Search period end: 01 June 2022 00:00
Orbit: 583 x 679 km, 97.7° (Epoch: 21 May)

Date Brightness Start Highest point End Pass type
(mag) Time Alt. Az. Time Alt. Az. Time Alt. Az.
22 May ? 04:04:49 10° NNE 04:08:46 37° E 04:12:38 10° SSE visible
23 May ? 04:25:17 10° NNE 04:29:29 61° E 04:33:35 10° S visible
24 May ? 03:12:05 10° ENE 03:13:08 11° E 03:14:11 10° E visible
25 May ? 03:31:11 10° NE 03:34:00 17° E 03:36:48 10° SE visible
26 May ? 03:51:12 10° NE 03:54:49 27° E 03:58:21 10° SSE visible
27 May ? 04:11:31 10° NNE 04:15:33 44° E 04:19:29 10° S visible
29 May ? 03:18:02 10° ENE 03:19:55 13° E 03:21:47 10° ESE visible
30 May ? 03:37:37 10° NE 03:40:44 20° E 03:43:49 10° SE visible
31 May ? 03:57:44 10° NNE 04:01:29 32° E 04:05:11 10° SSE visible
